Regional Weather Roundup
Issued by NWS

Home | Current Version | Previous Version | Graphics & Text | Print | Product List | Glossary On
Versions: 1 2 3 4 5 6 7 8 9 10 11 12 13 14 15 16 17 18 19 20 21 22 23 24 25 26 27 28 29 30 31 32 33 34 35 36 37 38 39 40 41 42 43 44 45 46 47 48 49 50
000
ASUS43 KFSD 261210
RWRSD

WEATHER ROUNDUP FOR SOUTH DAKOTA
NATIONAL WEATHER SERVICE SIOUX FALLS SD
600 AM CST SUN FEB 26 2017

NOTE: "FAIR" INDICATES FEW OR NO CLOUDS BELOW 12,000 FEET WITH NO
SIGNIFICANT WEATHER AND/OR OBSTRUCTIONS TO VISIBILITY.


SDZ001>005-009-010-012>017-261300-
NORTHWEST AND NORTH CENTRAL SOUTH DAKOTA

CITY           SKY/WX    TMP DP  RH WIND       PRES   REMARKS
BUFFALO          N/A     18  11  74 W10       29.61R WCI   6
FAITH            N/A     20  15  81 W12       29.70S WCI   8
MOBRIDGE       CLOUDY    19  14  81 N7        29.72R WCI  10
$$

SDZ012>016-024>037-041>051-057-063-072>074-261300-
SOUTHWEST AND SOUTH CENTRAL SOUTH DAKOTA

CITY           SKY/WX    TMP DP  RH WIND       PRES   REMARKS
RAPID CTY ARPT CLEAR     16   9  74 W5        29.74R WCI   9
PIERRE         CLEAR     20  17  88 W5        29.76R WCI  13
CUSTER         CLEAR     10   6  84 W7        29.65R WCI  -1
ELLSWORTH AFB  CLEAR     16  10  77 W10       29.72S WCI   3
PHILIP         CLEAR     17  12  80 SW3       29.77R
PINE RIDGE     CLEAR     14   4  64 SW10      29.80R WCI   1
SPEARFISH      FAIR      25  10  54 W9G18     29.70R WCI  15
WINNER         FAIR      21  14  74 SW7       29.78R WCI  12
$$

SDZ004>011-016>023-039-040-261300-
NORTHEAST SOUTH DAKOTA

CITY           SKY/WX    TMP DP  RH WIND       PRES   REMARKS
ABERDEEN       CLEAR     22  17  81 NW14      29.75R WCI   9
WATERTOWN      CLEAR     23  21  92 W12       29.70R WCI  12
BROOKINGS      MOCLDY    23  21  92 SW7       29.72R WCI  15
SISSETON         N/A     28  23  81 NW20G28   29.70R WCI  15
$$

SDZ017-020-022-023-036>040-048>070-261300-
SOUTHEAST SOUTH DAKOTA

CITY           SKY/WX    TMP DP  RH WIND       PRES   REMARKS
SIOUX FALLS    PTCLDY    17  14  88 SW3       29.76S
HURON          CLEAR     21  19  92 W8        29.76R WCI  11
CHAMBERLAIN    CLEAR     22  18  85 W8        29.78R WCI  12
MITCHELL       CLEAR     23  18  81 W12       29.78R WCI  12
YANKTON        CLEAR     19  12  73 SW9       29.80R WCI   9
$$

ABBREVIATIONS USED IN REMARKS
   TC - TEMPERATURE IN CELSIUS
  WCI - WIND CHILL INDEX
   HX - HEAT INDEX
  VSB - VISIBILITY




USA.gov is the U.S. government's official web portal to all federal, state and local government web resources and services.